When you browse on this site, cookies collect data to enhance your experience and personalize the content and advertising you see.
Visit our Privacy Policy to learn more. By continuing to use the site, you agree to this use of cookies and data.
  • în România
  • Lista ţărilor
  • Pe 7 zile
  • Temperatura apei
  • Meteo pe hartă
  • Widget-uri
  • user-avatar
    Intrare

    Meteo pe oră la Tibissa

    Astăzi, 3 Iunie, Miercuri

    Timp Temperatura Precipitaţii Vânt Presiune Umiditate
    00:00 +22°C° 0 mm 1 m/s 685 mmHg 55%
    01:00 +19°C° 0 mm 0 m/s 684 mmHg 58%
    02:00 +19°C° 0 mm 0 m/s 684 mmHg 59%
    03:00 +18°C° 0 mm 0 m/s 683 mmHg 60%
    04:00 +18°C° 0 mm 0 m/s 683 mmHg 62%
    05:00 +21°C° 0 mm 1 m/s 683 mmHg 58%
    06:00 +21°C° 0 mm 1 m/s 683 mmHg 54%
    07:00 +22°C° 0 mm 1 m/s 684 mmHg 50%
    08:00 +23°C° 0 mm 2 m/s 684 mmHg 46%
    09:00 +24°C° 0 mm 2 m/s 684 mmHg 42%
    10:00 +26°C° 0 mm 3 m/s 685 mmHg 38%
    11:00 +27°C° 0 mm 3 m/s 685 mmHg 36%
    12:00 +28°C° 0 mm 3 m/s 684 mmHg 34%
    13:00 +29°C° 0 mm 4 m/s 684 mmHg 32%
    14:00 +29°C° 0.2 mm 3 m/s 684 mmHg 34%
    15:00 +28°C° 0.2 mm 3 m/s 683 mmHg 35%
    16:00 +28°C° 0.2 mm 3 m/s 683 mmHg 36%
    17:00 +28°C° 0 mm 2 m/s 683 mmHg 37%
    18:00 +28°C° 0 mm 2 m/s 683 mmHg 38%
    19:00 +28°C° 0 mm 2 m/s 682 mmHg 38%
    20:00 +27°C° 0 mm 2 m/s 683 mmHg 41%
    21:00 +25°C° 0 mm 2 m/s 683 mmHg 45%
    22:00 +24°C° 0 mm 2 m/s 683 mmHg 48%
    23:00 +24°C° 0 mm 2 m/s 682 mmHg 50%

    Mâine, 4 Iunie, Joi

    Timp Temperatura Precipitaţii Vânt Presiune Umiditate
    00:00 +23°C° 0 mm 2 m/s 682 mmHg 53%
    01:00 +22°C° 0 mm 3 m/s 681 mmHg 56%
    02:00 +21°C° 0 mm 3 m/s 681 mmHg 56%
    03:00 +21°C° 0 mm 2 m/s 681 mmHg 56%
    04:00 +21°C° 0 mm 2 m/s 681 mmHg 57%
    05:00 +22°C° 0 mm 3 m/s 681 mmHg 54%
    06:00 +22°C° 0 mm 3 m/s 681 mmHg 50%
    07:00 +24°C° 0 mm 3 m/s 681 mmHg 47%
    08:00 +26°C° 0 mm 4 m/s 682 mmHg 42%
    09:00 +28°C° 0 mm 4 m/s 682 mmHg 37%
    10:00 +29°C° 0 mm 5 m/s 682 mmHg 32%
    11:00 +30°C° 0 mm 5 m/s 682 mmHg 30%
    12:00 +32°C° 0 mm 5 m/s 682 mmHg 28%
    13:00 +33°C° 0 mm 5 m/s 682 mmHg 26%
    14:00 +34°C° 0 mm 6 m/s 682 mmHg 25%
    15:00 +34°C° 0 mm 6 m/s 681 mmHg 23%
    16:00 +34°C° 0 mm 7 m/s 681 mmHg 22%
    17:00 +33°C° 0 mm 6 m/s 681 mmHg 24%
    18:00 +32°C° 0 mm 5 m/s 681 mmHg 27%
    19:00 +32°C° 0 mm 5 m/s 680 mmHg 29%
    20:00 +28°C° 0 mm 5 m/s 680 mmHg 37%
    21:00 +25°C° 0 mm 5 m/s 680 mmHg 45%
    22:00 +22°C° 0 mm 5 m/s 680 mmHg 53%
    23:00 +21°C° 0 mm 5 m/s 680 mmHg 57%

    Poimâine, 5 Iunie, Vineri

    Timp Temperatura Precipitaţii Vânt Presiune Umiditate
    00:00 +19°C° 0 mm 5 m/s 679 mmHg 61%
    01:00 +17°C° 0 mm 5 m/s 679 mmHg 65%
    02:00 +17°C° 0 mm 6 m/s 679 mmHg 68%
    03:00 +16°C° 0 mm 6 m/s 679 mmHg 71%
    04:00 +16°C° 0 mm 6 m/s 678 mmHg 75%
    05:00 +16°C° 0 mm 7 m/s 679 mmHg 73%
    06:00 +16°C° 0 mm 7 m/s 679 mmHg 71%
    07:00 +17°C° 0 mm 7 m/s 680 mmHg 69%
    08:00 +18°C° 0 mm 8 m/s 680 mmHg 62%
    09:00 +19°C° 0 mm 10 m/s 681 mmHg 54%
    10:00 +22°C° 0 mm 11 m/s 682 mmHg 47%
    11:00 +22°C° 0 mm 10 m/s 682 mmHg 43%
    12:00 +23°C° 0 mm 10 m/s 682 mmHg 39%
    13:00 +24°C° 0 mm 9 m/s 682 mmHg 35%
    14:00 +24°C° 0 mm 9 m/s 683 mmHg 34%
    15:00 +24°C° 0 mm 9 m/s 683 mmHg 33%
    16:00 +24°C° 0 mm 8 m/s 683 mmHg 32%
    17:00 +24°C° 0 mm 8 m/s 683 mmHg 34%
    18:00 +23°C° 0 mm 7 m/s 683 mmHg 35%
    19:00 +22°C° 0 mm 6 m/s 684 mmHg 36%
    20:00 +21°C° 0 mm 5 m/s 684 mmHg 41%
    21:00 +20°C° 0 mm 4 m/s 684 mmHg 46%
    22:00 +19°C° 0 mm 3 m/s 684 mmHg 51%
    23:00 +18°C° 0 mm 2 m/s 684 mmHg 53%

    6 Iunie, Sâmbătă

    Timp Temperatura Precipitaţii Vânt Presiune Umiditate
    00:00 +18°C° 0 mm 2 m/s 684 mmHg 55%
    01:00 +18°C° 0 mm 1 m/s 684 mmHg 56%
    02:00 +18°C° 0 mm 1 m/s 684 mmHg 56%
    03:00 +18°C° 0 mm 1 m/s 684 mmHg 55%
    04:00 +18°C° 0 mm 1 m/s 684 mmHg 54%
    05:00 +19°C° 0 mm 1 m/s 684 mmHg 51%
    06:00 +20°C° 0 mm 1 m/s 685 mmHg 48%
    07:00 +20°C° 0 mm 1 m/s 685 mmHg 45%
    08:00 +22°C° 0 mm 1 m/s 686 mmHg 41%
    09:00 +23°C° 0 mm 2 m/s 686 mmHg 36%
    10:00 +25°C° 0 mm 3 m/s 687 mmHg 32%
    11:00 +26°C° 0 mm 4 m/s 687 mmHg 28%
    12:00 +28°C° 0 mm 5 m/s 687 mmHg 24%
    13:00 +29°C° 0 mm 5 m/s 687 mmHg 20%
    14:00 +30°C° 0 mm 5 m/s 686 mmHg 20%
    15:00 +30°C° 0 mm 6 m/s 686 mmHg 21%
    16:00 +32°C° 0 mm 6 m/s 686 mmHg 21%
    17:00 +30°C° 0 mm 5 m/s 686 mmHg 23%
    18:00 +29°C° 0 mm 5 m/s 685 mmHg 25%
    19:00 +29°C° 0 mm 5 m/s 685 mmHg 27%
    20:00 +28°C° 0 mm 4 m/s 685 mmHg 30%
    21:00 +27°C° 0 mm 3 m/s 686 mmHg 33%
    22:00 +26°C° 0 mm 2 m/s 686 mmHg 36%
    23:00 +26°C° 0 mm 2 m/s 685 mmHg 37%

    7 Iunie, Duminică

    Timp Temperatura Precipitaţii Vânt Presiune Umiditate
    00:00 +26°C° 0 mm 2 m/s 685 mmHg 38%
    01:00 +25°C° 0 mm 2 m/s 684 mmHg 39%
    02:00 +25°C° 0 mm 2 m/s 684 mmHg 39%
    03:00 +25°C° 0 mm 2 m/s 684 mmHg 39%
    04:00 +25°C° 0 mm 3 m/s 684 mmHg 40%
    05:00 +25°C° 0 mm 3 m/s 684 mmHg 39%
    06:00 +26°C° 0 mm 3 m/s 684 mmHg 38%
    07:00 +26°C° 0 mm 4 m/s 684 mmHg 37%
    08:00 +27°C° 0 mm 5 m/s 685 mmHg 33%
    09:00 +28°C° 0 mm 6 m/s 685 mmHg 30%
    10:00 +29°C° 0 mm 7 m/s 686 mmHg 27%
    11:00 +31°C° 0 mm 9 m/s 686 mmHg 25%
    12:00 +32°C° 0 mm 10 m/s 686 mmHg 23%
    13:00 +33°C° 0 mm 11 m/s 686 mmHg 21%
    14:00 +33°C° 0 mm 10 m/s 685 mmHg 22%
    15:00 +33°C° 0 mm 8 m/s 685 mmHg 22%
    16:00 +34°C° 0 mm 7 m/s 684 mmHg 23%
    17:00 +32°C° 0 mm 7 m/s 684 mmHg 28%
    18:00 +30°C° 0 mm 6 m/s 684 mmHg 33%
    19:00 +28°C° 0 mm 6 m/s 684 mmHg 39%
    20:00 +26°C° 0 mm 5 m/s 684 mmHg 44%
    21:00 +25°C° 0 mm 5 m/s 684 mmHg 49%
    22:00 +22°C° 0 mm 4 m/s 684 mmHg 54%
    23:00 +21°C° 0 mm 4 m/s 684 mmHg 55%

    8 Iunie, Luni

    Timp Temperatura Precipitaţii Vânt Presiune Umiditate
    00:00 +21°C° 0 mm 3 m/s 684 mmHg 55%
    01:00 +20°C° 0 mm 3 m/s 684 mmHg 56%
    02:00 +20°C° 0 mm 2 m/s 684 mmHg 58%
    03:00 +19°C° 0 mm 2 m/s 683 mmHg 59%
    04:00 +19°C° 0 mm 2 m/s 683 mmHg 61%
    05:00 +19°C° 0 mm 2 m/s 683 mmHg 59%
    06:00 +19°C° 0 mm 2 m/s 683 mmHg 58%
    07:00 +20°C° 0 mm 2 m/s 684 mmHg 56%
    08:00 +21°C° 0 mm 2 m/s 684 mmHg 52%
    09:00 +24°C° 0 mm 2 m/s 684 mmHg 47%
    10:00 +26°C° 0 mm 3 m/s 685 mmHg 42%
    11:00 +27°C° 0 mm 3 m/s 685 mmHg 37%
    12:00 +29°C° 0 mm 3 m/s 685 mmHg 32%
    13:00 +30°C° 0 mm 3 m/s 685 mmHg 28%
    14:00 +30°C° 0 mm 3 m/s 685 mmHg 27%
    15:00 +31°C° 0 mm 3 m/s 685 mmHg 26%
    16:00 +31°C° 0 mm 3 m/s 684 mmHg 25%
    17:00 +30°C° 0.2 mm 3 m/s 684 mmHg 29%
    18:00 +29°C° 0.2 mm 3 m/s 684 mmHg 33%
    19:00 +28°C° 0.2 mm 3 m/s 684 mmHg 36%
    20:00 +27°C° 0.2 mm 4 m/s 685 mmHg 43%
    21:00 +25°C° 0.2 mm 5 m/s 685 mmHg 50%
    22:00 +22°C° 0.2 mm 5 m/s 685 mmHg 57%
    23:00 +21°C° 0 mm 5 m/s 685 mmHg 60%
    Arată mai mult